CZ-6A DEB, 54528

Orbit data source: Space-Track

CZ-6A DEB, 54528 is space debris in SSO originally from a launch on Fri, 11 Nov 2022 UTC launched from the Taiyaun Space Center, China (TSC). Debris objects in space refer to the collection of defunct objects orbiting the Earth. Examples of debris include non-operational satellites, rocket bodies, and fragments generated from explosions, collisions, or faulty payload assembly.

Loading next visibility...
Identifier
54528, 2022-151KG
Orbit
SSO
Country
Flag of CNCN / PRC
Related business
Manufacturer
SAST
Mission
Spacecraft
Bus & Motor
Unknown
Mass
Unknown
Launch date (UTC)
2022-11-11 (4 years ago)
Launch vehicle
Unknown
Launch site
Taiyaun Space Center, China (TSC)
Object type
Payload
Rocket body
Debris
Shape & HBR
Unknown shape, 0.2 m
Radar Cross Section
Medium (>0.1 m² and <1 m²)

Expand to show TLE details & history
Last TLE update: 2 days ago

TLE from 2 days ago
0 CZ-6A DEB
1 54528U 22151KG  26171.32824830  .00002132  00000-0  55174-3 0  9995
2 54528  98.5310 204.1261 0090482 311.0921  48.2482 14.48536414189486
Epoch: 2026-06-20T07:52Z
TLE epoch observation values (Epoch: 2026-06-20T07:52:40.653Z)
Latitude
-0.00004°
Longitude
177.41227°
Altitude
690.88 km
Speed
7.533 km/s
True Right ascension
13h 36m 30s
True Declination
0° 00' 00"
Sunlit
Object was in daylight at epoch
Visualization orbit readout
Latitude
Unknown
Longitude
Unknown
Altitude
Unknown
Speed
Unknown
Apparent Right ascension
Unknown
Apparent Declination
Unknown
Sunlit
N/A
Visualization observer readout
Local Sidereal Time
21:23:30
Azimuth
Unknown
Elevation
Unknown
Doppler factor
Unknown
Orbital elements
Apogee altitude
791.838 km
Perigee altitude
663.251 km
Semi-major axis
7,105.681 km
Eccentricity
0.00905
Inclination
98.531°
RAAN
204.1261°
Arg. of periapsis
311.0921°
True anomaly
49.02757°
Mean anomaly
48.2482°
Eccentric anomaly
48.6373°
Mean motion
3.62355 °/min
Orbital period
99.35 mins
BSTAR
0.00055174
Loading maneuver chart data...
Computing Atmospheric mass density...
Loading historical data...
Loading historical data...
Loading historical data...
Loading historical data...
Loading historical data...
Loading historical data...
Loading historical data...

Documentation

Showing up to 5 results
|